ADT,Max TemperatureF,Mean TemperatureF,Min TemperatureF,Max Dew PointF,MeanDew PointF,Min DewpointF,Max Humidity, Mean Humidity, Min Humidity, Max Sea Level PressureIn, Mean Sea Level PressureIn, Min Sea Level PressureIn, Max VisibilityMiles, Mean VisibilityMiles, Min VisibilityMiles, Max Wind SpeedMPH, Mean Wind SpeedMPH, Max Gust SpeedMPH,PrecipitationIn, CloudCover, Events, WindDirDegrees
2013-6-1,92,76,60,66,61,57,100,71,35,29.93,29.90,29.83,15,14,8,23,8,31,0.00,5,Rain,261
2013-6-2,86,71,56,68,62,55,94,75,48,29.88,29.84,29.78,15,12,6,21,5,30,0.00,4,,254
2013-6-3,75,70,62,64,62,59,94,84,65,29.86,29.81,29.76,15,14,7,17,10,28,0.08,7,Rain,218
2013-6-4,69,62,54,61,50,39,100,68,27,29.87,29.75,29.70,15,10,2,28,9,36,0.01,5,Rain,260
2013-6-5,66,58,49,43,40,34,71,53,30,30.12,30.02,29.90,15,15,15,17,9,22,0.00,1,,261
2013-6-6,70,56,42,46,39,32,93,53,15,30.23,30.18,30.10,15,15,15,16,6,23,0.00,5,,263
2013-6-7,68,59,50,52,47,37,88,65,30,30.22,30.18,30.13,15,15,15,14,4,,0.08,8,,121
2013-6-8,63,56,48,63,53,43,100,93,63,30.13,29.88,29.65,15,5,1,15,10,18,2.36,8,Rain,54
2013-6-9,59,54,48,54,48,45,100,84,63,30.13,30.02,29.86,15,12,4,12,8,18,0.08,7,,306
2013-6-10,69,60,50,54,51,48,100,77,49,30.18,30.13,30.09,15,11,3,9,4,,0.08,7,Rain,264
2013-6-11,66,58,50,55,52,48,100,80,59,30.10,29.94,29.73,15,13,4,15,6,21,0.20,7,Rain,146
2013-6-12,58,56,53,55,55,54,100,96,88,29.70,29.57,29.51,12,4,1,16,12,28,0.31,8,Rain,80
2013-6-13,60,55,50,54,50,41,100,86,48,29.76,29.68,29.59,15,10,1,20,10,25,0.02,8,Rain,12
2013-6-14,56,50,45,52,48,45,100,90,79,29.77,29.71,29.68,15,14,12,12,4,,0.03,8,Rain,57
2013-6-15,73,59,45,54,47,41,100,70,29,29.81,29.73,29.68,15,9,0,20,6,25,0.00,2,Fog,254
2013-6-16,75,62,49,52,48,37,87,57,34,29.88,29.85,29.81,15,15,15,15,8,20,0.02,5,Rain,258
2013-6-17,73,64,56,59,57,50,94,76,57,29.84,29.80,29.76,15,14,12,15,5,,0.02,6,Rain,253
2013-6-18,72,64,56,59,54,50,94,70,42,29.94,29.88,29.82,15,13,4,24,6,31,0.01,5,Rain,252
2013-6-19,71,63,55,57,51,43,100,69,35,30.05,29.94,29.91,15,14,8,13,3,,0.08,4,Rain,284
2013-6-20,75,60,45,52,46,41,93,60,31,30.25,30.19,30.06,15,15,15,16,5,21,0.00,1,,256
2013-6-21,75,61,47,57,53,46,100,70,47,30.25,30.20,30.15,15,15,15,17,6,23,0.00,3,Rain,246
2013-6-22,77,64,50,61,55,50,100,73,32,30.21,30.16,30.10,15,12,1,18,5,17,0.00,4,Fog,243
2013-6-23,81,68,54,64,59,54,100,79,57,30.17,30.11,30.00,15,14,10,12,6,17,0.00,6,Rain,250
2013-6-24,77,70,63,68,64,61,94,84,74,29.99,29.87,29.77,15,10,3,12,7,,0.00,7,Rain,243
2013-6-25,89,75,61,68,64,59,100,70,36,29.80,29.76,29.71,15,14,12,16,7,23,0.00,6,,241
2013-6-26,63,59,55,63,58,54,100,90,82,29.88,29.80,29.71,15,12,4,15,7,20,0.04,8,Rain,40
2013-6-27,67,58,50,61,55,50,100,89,77,29.95,29.91,29.87,15,10,2,10,6,,0.00,8,Rain,24
2013-6-28,64,60,57,63,60,57,100,95,88,29.96,29.87,29.77,15,7,2,14,9,18,0.35,8,Rain,95
2013-6-29,76,69,62,70,68,64,94,89,78,29.79,29.74,29.71,15,11,3,15,8,22,0.24,8,Rain-Thunderstorm,196
2013-6-30,78,72,67,68,67,66,94,84,64,29.99,29.87,29.79,15,13,4,17,11,23,0.01,8,Rain,213